| time (UTC) | temp F | wind direction | speed knots | gust knots | rain 1hr in | rain 24hr in | rain mn in | humidity % | barometer mb |
| 20260505032318 | 64 | 176 | 0.0 | 1.7 | 0.00 | 0.00 | 0.00 | 51 | 1015.4 |
| 20260505031817 | 65 | 150 | 0.0 | 2.6 | 0.00 | 0.00 | 0.00 | 50 | 1015.3 |
| 20260505031317 | 65 | 166 | 1.7 | 2.6 | 0.00 | 0.00 | 0.00 | 49 | 1015.3 |
| 20260505030817 | 65 | 156 | 1.7 | 1.7 | 0.00 | 0.00 | 0.00 | 49 | 1015.5 |
| 20260505030319 | 65 | 150 | 0.0 | 1.7 | 0.00 | 0.00 | 0.00 | 49 | 1015.3 |
| 20260505025817 | 65 | 205 | 0.0 | 1.7 | 0.00 | 0.00 | 0.00 | 49 | 1015.6 |
| 20260505025315 | 65 | 155 | 1.7 | 1.7 | 0.00 | 0.00 | 0.00 | 48 | 1015.4 |
| 20260505024816 | 65 | 75 | 0.0 | 1.7 | 0.00 | 0.00 | 0.00 | 49 | 1015.4 |
| 20260505024553 | 65 | 110 | 0.0 | 1.7 | 0.00 | 0.00 | 0.00 | 47 | 1015.6 |
| 20260505024046 | 65 | 176 | 1.7 | 1.7 | 0.00 | 0.00 | 0.00 | 47 | 1015.4 |
| 20260505023316 | 65 | 60 | 0.0 | 1.7 | 0.00 | 0.00 | 0.00 | 47 | 1015.3 |
| 20260505022816 | 65 | 76 | 0.0 | 1.7 | 0.00 | 0.00 | 0.00 | 47 | 1015.3 |
| 20260505022316 | 65 | 198 | 0.0 | 1.7 | 0.00 | 0.00 | 0.00 | 45 | 1015.1 |
| 20260505021817 | 65 | 60 | 0.0 | 1.7 | 0.00 | 0.00 | 0.00 | 46 | 1015.1 |
| 20260505021316 | 66 | 69 | 0.0 | 1.7 | 0.00 | 0.00 | 0.00 | 46 | 1015.3 |
| 20260505021046 | 66 | 76 | 0.0 | 1.7 | 0.00 | 0.00 | 0.00 | 45 | 1015.1 |
| 20260505020317 | 66 | 90 | 0.9 | 1.7 | 0.00 | 0.00 | 0.00 | 44 | 1015.1 |
| 20260505015816 | 66 | 69 | 0.0 | 1.7 | 0.00 | 0.00 | 0.00 | 45 | 1015.1 |
| 20260505015554 | 66 | 81 | 0.0 | 2.6 | 0.00 | 0.00 | 0.00 | 45 | 1014.9 |
| 20260505014817 | 66 | 60 | 0.0 | 2.6 | 0.00 | 0.00 | 0.00 | 44 | 1015.0 |
| 20260505014315 | 67 | 90 | 0.9 | 1.7 | 0.00 | 0.00 | 0.00 | 44 | 1014.9 |
| 20260505013816 | 67 | 118 | 0.0 | 1.7 | 0.00 | 0.00 | 0.00 | 42 | 1014.9 |
| 20260505013316 | 68 | 121 | 0.0 | 1.7 | 0.00 | 0.00 | 0.00 | 41 | 1014.7 |
| 20260505012817 | 68 | 130 | 1.7 | 1.7 | 0.00 | 0.00 | 0.00 | 41 | 1014.8 |
| 20260505012317 | 68 | 127 | 0.0 | 0.9 | 0.00 | 0.00 | 0.00 | 40 | 1014.7 |
| 20260505011818 | 68 | 127 | 0.0 | 0.9 | 0.00 | 0.00 | 0.00 | 40 | 1014.6 |
| 20260505011316 | 69 | 142 | 0.0 | 0.9 | 0.00 | 0.00 | 0.00 | 40 | 1014.3 |
| 20260505011145 | 70 | 87 | 0.0 | 0.0 | 0.00 | 0.00 | 0.00 | 39 | 1014.2 |
| 20260505011141 | 69 | 87 | 0.0 | 0.0 | 0.00 | 0.00 | 0.00 | 39 | 1014.4 |
| 20260505005817 | 70 | 87 | 0.0 | 1.7 | 0.00 | 0.00 | 0.00 | 38 | 1014.3 |
| 20260505005304 | 70 | 87 | 0.0 | 1.7 | 0.00 | 0.00 | 0.00 | 38 | 1014.3 |
| 20260505004804 | 71 | 186 | 0.0 | 1.7 | 0.00 | 0.00 | 0.00 | 37 | 1014.5 |
| 20260505004304 | 71 | 213 | 0.0 | 1.7 | 0.00 | 0.00 | 0.00 | 36 | 1014.3 |
| 20260505003805 | 71 | 185 | 0.0 | 2.6 | 0.00 | 0.00 | 0.00 | 36 | 1014.3 |
| 20260505003305 | 72 | 210 | 0.0 | 2.6 | 0.00 | 0.00 | 0.00 | 37 | 1014.1 |
| 20260505002804 | 71 | 191 | 1.7 | 2.6 | 0.00 | 0.00 | 0.00 | 36 | 1014.2 |
| 20260505002304 | 72 | 224 | 0.9 | 2.6 | 0.00 | 0.00 | 0.00 | 36 | 1014.2 |
| 20260505001805 | 72 | 225 | 0.0 | 1.7 | 0.00 | 0.00 | 0.00 | 37 | 1014.1 |
| 20260505001303 | 72 | 216 | 0.0 | 1.7 | 0.00 | 0.00 | 0.00 | 37 | 1014.1 |
| 20260505000804 | 72 | 210 | 0.0 | 2.6 | 0.00 | 0.00 | 0.00 | 37 | 1014.1 |
| 20260505000309 | 73 | 195 | 1.7 | 2.6 | 0.00 | 0.00 | 0.00 | 36 | 1014.1 |
| 20260504235807 | 73 | 240 | 0.0 | 2.6 | 0.00 | 0.00 | 0.00 | 36 | 1014.0 |
| 20260504235543 | 73 | 185 | 0.0 | 5.2 | 0.00 | 0.00 | 0.00 | 36 | 1014.0 |
| 20260504234805 | 74 | 195 | 0.0 | 5.2 | 0.00 | 0.00 | 0.00 | 35 | 1013.9 |
| 20260504234304 | 74 | 230 | 1.7 | 5.2 | 0.00 | 0.00 | 0.00 | 36 | 1014.0 |
| 20260504233804 | 74 | 198 | 0.0 | 5.2 | 0.00 | 0.00 | 0.00 | 35 | 1013.9 |
| 20260504233319 | 74 | 150 | 0.0 | 5.2 | 0.00 | 0.00 | 0.00 | 35 | 1013.6 |
| 20260504232803 | 74 | 150 | 0.0 | 3.5 | 0.00 | 0.00 | 0.00 | 34 | 1013.6 |
| 20260504232304 | 74 | 236 | 2.6 | 2.6 | 0.00 | 0.00 | 0.00 | 33 | 1013.7 |
| 20260504231804 | 75 | 207 | 0.0 | 3.5 | 0.00 | 0.00 | 0.00 | 31 | 1013.3 |
| 20260504231304 | 75 | 206 | 1.7 | 5.2 | 0.00 | 0.00 | 0.00 | 31 | 1013.4 |
| 20260504230804 | 75 | 209 | 0.0 | 5.2 | 0.00 | 0.00 | 0.00 | 30 | 1013.3 |
| 20260504230305 | 75 | 221 | 1.7 | 5.2 | 0.00 | 0.00 | 0.00 | 30 | 1013.6 |
| 20260504225805 | 75 | 207 | 1.7 | 4.3 | 0.00 | 0.00 | 0.00 | 31 | 1013.6 |
| 20260504225304 | 76 | 224 | 4.3 | 5.2 | 0.00 | 0.00 | 0.00 | 32 | 1013.6 |
| 20260504224804 | 76 | 215 | 1.7 | 5.2 | 0.00 | 0.00 | 0.00 | 33 | 1013.5 |
| 20260504224304 | 76 | 210 | 0.0 | 4.3 | 0.00 | 0.00 | 0.00 | 33 | 1013.5 |
| 20260504223804 | 76 | 240 | 0.0 | 5.2 | 0.00 | 0.00 | 0.00 | 32 | 1013.6 |
| 20260504223304 | 76 | 213 | 2.6 | 7.0 | 0.00 | 0.00 | 0.00 | 30 | 1013.4 |
| 20260504222806 | 77 | 231 | 0.0 | 7.0 | 0.00 | 0.00 | 0.00 | 30 | 1013.6 |
| 20260504222305 | 77 | 240 | 1.7 | 6.1 | 0.00 | 0.00 | 0.00 | 29 | 1013.7 |
| 20260504222040 | 77 | 230 | 1.7 | 6.1 | 0.00 | 0.00 | 0.00 | 29 | 1013.6 |
| 20260504221304 | 78 | 207 | 1.7 | 5.2 | 0.00 | 0.00 | 0.00 | 29 | 1013.6 |
| 20260504221053 | 78 | 216 | 0.0 | 5.2 | 0.00 | 0.00 | 0.00 | 29 | 1013.6 |
| 20260504220305 | 78 | 186 | 0.0 | 4.3 | 0.00 | 0.00 | 0.00 | 28 | 1013.6 |
| 20260504215804 | 77 | 203 | 1.7 | 4.3 | 0.00 | 0.00 | 0.00 | 28 | 1013.7 |
| 20260504215538 | 77 | 150 | 0.0 | 4.3 | 0.00 | 0.00 | 0.00 | 27 | 1013.5 |
| 20260504214804 | 77 | 223 | 1.7 | 6.1 | 0.00 | 0.00 | 0.00 | 27 | 1013.8 |
| 20260504214304 | 78 | 240 | 2.6 | 6.1 | 0.00 | 0.00 | 0.00 | 27 | 1013.6 |
| 20260504213804 | 78 | 205 | 1.7 | 4.3 | 0.00 | 0.00 | 0.00 | 27 | 1013.6 |
| 20260504213305 | 78 | 150 | 0.0 | 4.3 | 0.00 | 0.00 | 0.00 | 28 | 1013.7 |
| 20260504212804 | 78 | 157 | 0.0 | 4.3 | 0.00 | 0.00 | 0.00 | 27 | 1013.7 |
| 20260504212540 | 78 | 195 | 1.7 | 5.2 | 0.00 | 0.00 | 0.00 | 28 | 1013.7 |
| 20260504211804 | 78 | 150 | 0.0 | 5.2 | 0.00 | 0.00 | 0.00 | 27 | 1013.8 |
| 20260504211304 | 78 | 258 | 5.2 | 5.2 | 0.00 | 0.00 | 0.00 | 28 | 1013.6 |
| 20260504210804 | 78 | 248 | 0.0 | 6.1 | 0.00 | 0.00 | 0.00 | 27 | 1013.7 |
| 20260504210556 | 78 | 235 | 2.6 | 6.1 | 0.00 | 0.00 | 0.00 | 26 | 1013.9 |
| 20260504205807 | 79 | 204 | 0.0 | 5.2 | 0.00 | 0.00 | 0.00 | 27 | 1013.7 |
| 20260504205307 | 78 | 232 | 2.6 | 7.0 | 0.00 | 0.00 | 0.00 | 26 | 1013.9 |
| 20260504204804 | 78 | 257 | 1.7 | 7.0 | 0.00 | 0.00 | 0.00 | 27 | 1014.0 |
| 20260504204304 | 77 | 136 | 0.0 | 4.3 | 0.00 | 0.00 | 0.00 | 27 | 1013.9 |
| 20260504203804 | 77 | 240 | 2.6 | 5.2 | 0.00 | 0.00 | 0.00 | 26 | 1014.0 |
| 20260504203305 | 77 | 142 | 0.0 | 6.1 | 0.00 | 0.00 | 0.00 | 26 | 1014.0 |
| 20260504202803 | 77 | 245 | 4.3 | 6.1 | 0.00 | 0.00 | 0.00 | 29 | 1014.2 |
| 20260504202305 | 77 | 221 | 2.6 | 6.1 | 0.00 | 0.00 | 0.00 | 29 | 1014.1 |
| 20260504201804 | 78 | 260 | 2.6 | 6.1 | 0.00 | 0.00 | 0.00 | 30 | 1014.4 |
| 20260504201303 | 77 | 213 | 2.6 | 5.2 | 0.00 | 0.00 | 0.00 | 29 | 1014.2 |
| 20260504200804 | 77 | 142 | 0.9 | 4.3 | 0.00 | 0.00 | 0.00 | 29 | 1014.4 |
| 20260504200305 | 78 | 257 | 3.5 | 4.3 | 0.00 | 0.00 | 0.00 | 30 | 1014.5 |
| 20260504195804 | 77 | 229 | 1.7 | 4.3 | 0.00 | 0.00 | 0.00 | 29 | 1014.6 |
| 20260504195304 | 77 | 240 | 0.9 | 3.5 | 0.00 | 0.00 | 0.00 | 29 | 1014.5 |
| 20260504194804 | 78 | 240 | 0.0 | 4.3 | 0.00 | 0.00 | 0.00 | 31 | 1014.5 |
| 20260504194536 | 77 | 142 | 0.9 | 5.2 | 0.00 | 0.00 | 0.00 | 30 | 1014.7 |
| 20260504193804 | 77 | 218 | 2.6 | 5.2 | 0.00 | 0.00 | 0.00 | 29 | 1014.5 |
| 20260504193306 | 77 | 124 | 1.7 | 3.5 | 0.00 | 0.00 | 0.00 | 30 | 1014.6 |
| 20260504192804 | 77 | 109 | 1.7 | 3.5 | 0.00 | 0.00 | 0.00 | 30 | 1014.6 |
| 20260504192304 | 77 | 195 | 1.7 | 3.5 | 0.00 | 0.00 | 0.00 | 31 | 1014.6 |
| 20260504191804 | 77 | 84 | 0.9 | 4.3 | 0.00 | 0.00 | 0.00 | 30 | 1014.7 |
| 20260504191304 | 78 | 225 | 1.7 | 4.3 | 0.00 | 0.00 | 0.00 | 31 | 1014.7 |
| 20260504190804 | 78 | 79 | 0.0 | 4.3 | 0.00 | 0.00 | 0.00 | 32 | 1014.9 |
| 20260504190308 | 78 | 179 | 1.7 | 3.5 | 0.00 | 0.00 | 0.00 | 33 | 1014.9 |
| 20260504190045 | 77 | 190 | 0.0 | 3.5 | 0.00 | 0.00 | 0.00 | 31 | 1015.1 |
| 20260504185611 | 78 | 60 | 0.0 | 5.2 | 0.00 | 0.00 | 0.00 | 29 | 1015.1 |
| 20260504184805 | 76 | 240 | 1.7 | 5.2 | 0.00 | 0.00 | 0.00 | 31 | 1015.0 |
| 20260504184304 | 78 | 41 | 0.0 | 3.5 | 0.00 | 0.00 | 0.00 | 30 | 1015.3 |
| 20260504183804 | 78 | 138 | 0.0 | 5.2 | 0.00 | 0.00 | 0.00 | 30 | 1015.2 |
| 20260504183309 | 77 | 85 | 1.7 | 5.2 | 0.00 | 0.00 | 0.00 | 32 | 1015.2 |
| 20260504182804 | 76 | 135 | 0.0 | 5.2 | 0.00 | 0.00 | 0.00 | 33 | 1015.5 |
| 20260504182304 | 76 | 215 | 1.7 | 7.0 | 0.00 | 0.00 | 0.00 | 31 | 1015.4 |
| 20260504181804 | 76 | 224 | 1.7 | 7.0 | 0.00 | 0.00 | 0.00 | 32 | 1015.3 |
| 20260504181304 | 76 | 105 | 1.7 | 5.2 | 0.00 | 0.00 | 0.00 | 32 | 1015.3 |
| 20260504180804 | 76 | 180 | 1.7 | 5.2 | 0.00 | 0.00 | 0.00 | 31 | 1015.6 |
| 20260504180545 | 76 | 146 | 0.0 | 3.5 | 0.00 | 0.00 | 0.00 | 31 | 1015.6 |
| 20260504175807 | 77 | 90 | 1.7 | 4.3 | 0.00 | 0.00 | 0.00 | 32 | 1015.7 |
| 20260504175307 | 75 | 271 | 1.7 | 4.3 | 0.00 | 0.00 | 0.00 | 32 | 1015.9 |
| 20260504175037 | 75 | 90 | 0.0 | 3.5 | 0.00 | 0.00 | 0.00 | 34 | 1015.8 |
| 20260504174536 | 75 | 358 | 0.0 | 2.6 | 0.00 | 0.00 | 0.00 | 33 | 1015.7 |
| 20260504174040 | 75 | 96 | 1.7 | 4.3 | 0.00 | 0.00 | 0.00 | 32 | 1015.8 |
| 20260504173307 | 75 | 276 | 1.7 | 4.3 | 0.00 | 0.00 | 0.00 | 31 | 1015.8 |
| 20260504172809 | 74 | 60 | 0.9 | 2.6 | 0.00 | 0.00 | 0.00 | 34 | 1016.0 |
| 20260504172304 | 74 | 272 | 2.6 | 4.3 | 0.00 | 0.00 | 0.00 | 33 | 1015.8 |
| 20260504171804 | 75 | 67 | 1.7 | 4.3 | 0.00 | 0.00 | 0.00 | 33 | 1016.0 |
| 20260504171304 | 74 | 264 | 1.7 | 3.5 | 0.00 | 0.00 | 0.00 | 34 | 1015.8 |
| 20260504171039 | 74 | 60 | 0.0 | 5.2 | 0.00 | 0.00 | 0.00 | 33 | 1015.8 |
| 20260504170319 | 74 | 52 | 0.0 | 5.2 | 0.00 | 0.00 | 0.00 | 32 | 1015.9 |
| 20260504160305 | 70 | 190 | 3.5 | 4.3 | 0.00 | 0.00 | 0.00 | 38 | 1017.1 |
| 20260504151039 | 67 | 156 | 1.7 | 3.5 | 0.00 | 0.00 | 0.00 | 50 | 1017.1 |
| 20260504150309 | 66 | 150 | 0.0 | 2.6 | 0.00 | 0.00 | 0.00 | 50 | 1017.3 |
| 20260504141302 | 62 | 156 | 0.0 | 2.6 | 0.00 | 0.00 | 0.00 | 62 | 1017.3 |
| 20260504140815 | 61 | 240 | 0.0 | 1.7 | 0.00 | 0.00 | 0.00 | 63 | 1017.4 |
| 20260504140811 | 62 | 190 | 0.0 | 2.6 | 0.00 | 0.00 | 0.00 | 62 | 1017.2 |
| 20260504130304 | 55 | 136 | 0.9 | 2.6 | 0.00 | 0.00 | 0.00 | 76 | 1017.2 |
| 20260504120253 | 52 | 150 | 0.0 | 1.7 | 0.00 | 0.00 | 0.00 | 80 | 1016.9 |
| 20260504110457 | 50 | 150 | 0.0 | 1.7 | 0.00 | 0.00 | 0.00 | 84 | 1017.0 |
| 20260504100229 | 51 | 155 | 0.0 | 1.7 | 0.00 | 0.00 | 0.00 | 81 | 1017.0 |
| 20260504081717 | 51 | 84 | 1.7 | 2.6 | 0.00 | 0.00 | 0.00 | 77 | 1016.3 |
| 20260504081217 | 51 | 41 | 0.0 | 1.7 | 0.00 | 0.00 | 0.00 | 76 | 1016.2 |
| 20260504080717 | 51 | 135 | 0.0 | 1.7 | 0.00 | 0.00 | 0.00 | 76 | 1016.6 |
| 20260504080216 | 51 | 51 | 0.0 | 2.6 | 0.00 | 0.00 | 0.00 | 75 | 1016.4 |
| 20260504070217 | 53 | 60 | 0.0 | 1.7 | 0.00 | 0.00 | 0.00 | 69 | 1016.8 |
| 20260504050717 | 55 | 90 | 0.9 | 4.3 | 0.00 | 0.00 | 0.00 | 65 | 1016.8 |
| 20260504050215 | 55 | 103 | 2.6 | 4.3 | 0.00 | 0.00 | 0.00 | 66 | 1017.0 |
| 20260504045716 | 55 | 121 | 0.9 | 3.5 | 0.00 | 0.00 | 0.00 | 65 | 1017.0 |
| 20260504045217 | 55 | 105 | 0.0 | 5.2 | 0.00 | 0.00 | 0.00 | 65 | 1017.2 |
| 20260504044944 | 55 | 103 | 2.6 | 7.0 | 0.00 | 0.00 | 0.00 | 64 | 1017.0 |
| 20260504044217 | 56 | 91 | 0.0 | 7.0 | 0.00 | 0.00 | 0.00 | 64 | 1016.9 |
| 20260504043942 | 56 | 60 | 0.0 | 7.8 | 0.00 | 0.00 | 0.00 | 64 | 1017.2 |
| 20260504043216 | 56 | 103 | 2.6 | 7.8 | 0.00 | 0.00 | 0.00 | 64 | 1016.9 |
| 20260504042716 | 56 | 38 | 3.5 | 6.1 | 0.00 | 0.00 | 0.00 | 63 | 1017.2 |
| 20260504042216 | 56 | 87 | 3.5 | 6.1 | 0.00 | 0.00 | 0.00 | 64 | 1017.2 |
| 20260504041717 | 56 | 330 | 1.7 | 4.3 | 0.00 | 0.00 | 0.00 | 64 | 1017.1 |
| 20260504041445 | 56 | 60 | 3.5 | 4.3 | 0.00 | 0.00 | 0.00 | 63 | 1017.1 |
| 20260504040944 | 56 | 84 | 0.9 | 1.7 | 0.00 | 0.00 | 0.00 | 63 | 1017.4 |
| 20260504040609 | 56 | 90 | 0.0 | 1.7 | 0.00 | 0.00 | 0.00 | 64 | 1017.1 |
| 20260504035716 | 56 | 76 | 0.0 | 1.7 | 0.00 | 0.00 | 0.00 | 63 | 1017.4 |
| 20260504035215 | 56 | 76 | 0.9 | 1.7 | 0.00 | 0.00 | 0.00 | 63 | 1017.1 |
| 20260504034715 | 56 | 69 | 0.0 | 1.7 | 0.00 | 0.00 | 0.00 | 63 | 1017.1 |
| 20260504034217 | 56 | 90 | 0.0 | 1.7 | 0.00 | 0.00 | 0.00 | 63 | 1017.3 |
| 20260504033716 | 56 | 69 | 0.0 | 1.7 | 0.00 | 0.00 | 0.00 | 63 | 1017.2 |
| 20260504033216 | 57 | 69 | 0.0 | 1.7 | 0.00 | 0.00 | 0.00 | 63 | 1017.2 |
| 20260504033020 | 57 | 69 | 0.0 | 1.7 | 0.00 | 0.00 | 0.00 | 62 | 1017.3 |